Home   Weather   Manchester   Past weeks
Flag for United Kingdom

Past Weather in Manchester, England, United Kingdom — Yesterday and Last 2 Weeks

Now
46 °F

Passing clouds.


Feels Like: 41 °F
Forecast: 50 / 34 °F
Wind: 12 mph from West

Location: Manchester Airport

Current Time: Mar 24, 2019 at 9:41:23 am

Latest Report: Mar 24, 2019 at 9:20 am


Visibility: N/A

Pressure: 30.45 "Hg

Humidity: 71%

Dew Point: 37 °F

Location of ManchesterLocation

Past Weather in Manchester — Graph

°F

Manchester Temperature Yesterday

Maximum temperature yesterday: 50 °F (at 12:50 pm)
Minimum temperature yesterday: 39 °F (at 5:50 am)
Average temperature yesterday: 45 °F

High & Low Weather Summary for the Past Weeks

 TemperatureHumidityPressure
High63 °F (Mar 20, 2:20 pm)100% (Mar 16, 1:50 am)30.54 "Hg (Mar 16, 1:50 am)
Low32 °F (Mar 24, 5:20 am)46% (Mar 11, 1:50 pm)29.18 "Hg (Mar 16, 3:50 pm)
Average46 °F79%29.96 "Hg
* Reported Mar 9 8:20 am — Mar 24 8:20 am, Manchester. Weather by CustomWeather, © 2019

Note: Actual official high and low records may vary slightly from our data, if they occured in-between our weather recording intervals... More about our weather records

Advertising

Manchester Weather History for the Previous 24 Hours

Scroll right to see more
 ConditionsComfort  
Time TempWeatherWind HumidityBarometerVisibility
8:20 am
Sun, Mar 24
43 °FPartly sunny.6 mph81%30.45 "HgN/A
7:50 am37 °FChilly.3 mph93%30.45 "HgN/A
7:20 am36 °FPassing clouds.3 mph93%30.45 "HgN/A
6:50 am34 °FScattered clouds.5 mph93%30.45 "HgN/A
6:20 am32 °FChilly.3 mph93%30.45 "HgN/A
5:50 am34 °FFog.1 mph100%30.45 "HgN/A
5:20 am32 °FChilly.3 mph100%30.45 "HgN/A
4:50 am34 °FChilly.1 mph93%30.45 "HgN/A
4:20 am36 °FChilly.1 mph93%30.45 "HgN/A
3:50 am36 °FChilly.2 mph93%30.45 "HgN/A
3:20 am36 °FChilly.5 mph93%30.45 "HgN/A
2:50 am37 °FPassing clouds.3 mph87%30.48 "HgN/A
2:20 am39 °FPassing clouds.1 mph87%30.48 "HgN/A
1:50 am39 °FPassing clouds.2 mph87%30.48 "HgN/A
12:50 am41 °FQuite cool.1 mph81%30.51 "HgN/A
12:20 am39 °FChilly.1 mph87%30.48 "HgN/A
11:50 pm
Sat, Mar 23
39 °FChilly.3 mph87%30.51 "HgN/A
11:20 pm39 °FChilly.2 mph87%30.51 "HgN/A
10:50 pm41 °FQuite cool.1 mph81%30.51 "HgN/A
10:20 pm41 °FQuite cool.2 mph81%30.54 "HgN/A
9:50 pm43 °FQuite cool.1 mph76%30.54 "HgN/A
9:20 pm43 °FQuite cool.3 mph76%30.54 "HgN/A
8:50 pm43 °FQuite cool.3 mph76%30.54 "HgN/A
8:20 pm43 °FQuite cool.3 mph76%30.54 "HgN/A
7:50 pm45 °FQuite cool.3 mph66%30.54 "HgN/A
7:20 pm45 °FQuite cool.3 mph66%30.51 "HgN/A
6:50 pm45 °FQuite cool.5 mph66%30.51 "HgN/A
6:20 pm46 °FCool.5 mph57%30.51 "HgN/A
5:50 pm46 °FCool.7 mph57%30.51 "HgN/A
5:20 pm46 °FCool.7 mph57%30.51 "HgN/A
4:50 pm48 °FCool.7 mph50%30.51 "HgN/A
4:20 pm48 °FCool.7 mph54%30.51 "HgN/A
3:50 pm48 °FCool.7 mph50%30.51 "HgN/A
3:20 pm48 °FCool.6 mph50%30.51 "HgN/A
2:50 pm48 °FPassing clouds.9 mph54%30.51 "HgN/A
2:20 pm50 °FCool.8 mph50%30.51 "HgN/A
1:50 pm48 °FCool.7 mph54%30.51 "HgN/A
1:20 pm50 °FCool.7 mph50%30.54 "HgN/A
12:50 pm50 °FPassing clouds.8 mph50%30.54 "HgN/A
12:20 pm48 °FPassing clouds.8 mph54%30.54 "HgN/A
11:50 am48 °FScattered clouds.5 mph58%30.54 "HgN/A
11:20 am48 °FPassing clouds.8 mph54%30.54 "HgN/A
10:50 am46 °FCool.8 mph53%30.54 "HgN/A
10:20 am46 °FCool.8 mph57%30.51 "HgN/A
9:50 am46 °FCool.8 mph62%30.51 "HgN/A
9:20 am46 °FCool.8 mph66%30.51 "HgN/A
Weather by CustomWeather, © 2019

See weather overview